TimeCDT,TemperatureF,Dew PointF,Humidity,Sea Level PressureIn,VisibilityMPH,Wind Direction,Wind SpeedMPH,Gust SpeedMPH,PrecipitationIn,Events,Conditions,WindDirDegrees,DateUTC
12:53 AM,73.0,68.0,84,29.79,10.0,NNW,6.9,-,N/A,,Scattered Clouds,340,2013-09-22 05:53:00
1:53 AM,71.1,68.0,90,29.80,9.0,North,4.6,-,N/A,,Clear,360,2013-09-22 06:53:00
2:53 AM,71.1,66.9,87,29.79,10.0,North,8.1,-,N/A,,Clear,350,2013-09-22 07:53:00
3:53 AM,70.0,66.9,90,29.77,10.0,North,9.2,-,N/A,,Clear,350,2013-09-22 08:53:00
4:53 AM,70.0,66.9,90,29.77,10.0,North,9.2,-,N/A,,Clear,360,2013-09-22 09:53:00
6:53 AM,68.0,66.0,93,29.78,10.0,North,8.1,-,N/A,,Clear,360,2013-09-22 11:53:00
7:53 AM,68.0,64.9,90,29.80,10.0,North,9.2,-,N/A,,Clear,10,2013-09-22 12:53:00
8:53 AM,71.1,63.0,75,29.80,10.0,NNE,12.7,-,N/A,,Clear,20,2013-09-22 13:53:00
9:53 AM,75.9,64.0,67,29.82,10.0,NNE,13.8,20.7,N/A,,Clear,20,2013-09-22 14:53:00
10:53 AM,78.1,64.0,62,29.82,10.0,NNE,11.5,-,N/A,,Clear,30,2013-09-22 15:53:00
11:53 AM,81.0,64.0,56,29.82,10.0,NNE,15.0,20.7,N/A,,Clear,30,2013-09-22 16:53:00
12:53 PM,82.0,64.0,54,29.81,10.0,NNE,10.4,-,N/A,,Overcast,20,2013-09-22 17:53:00
1:53 PM,82.9,64.0,53,29.79,10.0,North,13.8,20.7,N/A,,Mostly Cloudy,10,2013-09-22 18:53:00
2:53 PM,84.0,64.0,51,29.76,10.0,North,13.8,-,N/A,,Overcast,10,2013-09-22 19:53:00
3:53 PM,84.9,63.0,48,29.74,10.0,NNE,16.1,20.7,N/A,,Partly Cloudy,30,2013-09-22 20:53:00
4:53 PM,84.9,61.0,44,29.73,10.0,NE,13.8,19.6,N/A,,Clear,40,2013-09-22 21:53:00
5:53 PM,84.9,60.1,43,29.73,10.0,NNE,11.5,19.6,N/A,,Clear,20,2013-09-22 22:53:00
6:53 PM,82.9,61.0,47,29.74,10.0,NE,9.2,-,N/A,,Overcast,40,2013-09-22 23:53:00
7:53 PM,79.0,66.0,64,29.76,10.0,North,-9999.0,-,N/A,,Overcast,0,2013-09-23 00:53:00
8:53 PM,75.9,66.0,71,29.78,10.0,East,11.5,-,N/A,,Mostly Cloudy,80,2013-09-23 01:53:00
9:53 PM,73.0,64.0,73,29.78,10.0,ENE,6.9,-,N/A,,Partly Cloudy,60,2013-09-23 02:53:00
10:53 PM,73.0,64.9,76,29.78,10.0,NE,5.8,-,N/A,,Overcast,50,2013-09-23 03:53:00
11:53 PM,73.9,64.0,71,29.78,10.0,NE,5.8,-,N/A,,Overcast,50,2013-09-23 04:53:00